Find Feng Yun 3D

NORAD ID: 43010 Int'l Des: 2017-072 Owner: NSMC Country: CN operational
LEOCIRCULARRETROGRADESSO

Current View

Loading 3D Globe...

About Feng Yun 3D

Feng Yun 3D (NORAD 43010) is a satellite launched Nov 14, 2017 by NSMC of CN. It operates in LEO, CIRCULAR, RETROGRADE, SSO orbit with a mass of 2450.00 kg.

Upcoming Passes

Passes for default location (London). Set your location on the main map for personalized predictions.

Altitude History

Loading altitude history...

Two-Line Element Set

1 43010U 17072A 26195.20962704 .00000149 00000-0 92081-4 0 9996
2 43010 99.0135 170.1225 0001602 16.3531 343.7695 14.19744551448827
Epoch: Jul 14, 2026 • Age: 9 hours

Current Status

Altitude 833.0 km
Apogee / Perigee N/A
Velocity 7.44 km/s
Sub-Earth Point 49.34°N, 21.63°E
Launch Date Nov 14, 2017
Age 8.6 years
Type other

Technical Details

Classification Payload
Mass 2450.00 kg
Dry Mass 2250.00 kg
Total Mass 2450.00 kg
Length 4.40 m
Diameter 2.00 m
Span 10.00 m
Shape Box + 2 Pan
Manufacturer SISE
Bus Type FY-3
Phase Status In Orbit
Owner/State NSMC/CN

Most Searched